Location: Bannatyne
(13.0833°N, 59.5333°W)
Time: 05:13:03
(UTC+00:00)

Vanguard 3 - Pass Details

Date: 26 January 2020
Orbit: 508 x 3263 km, 33.3° (Epoch: 25 February)

Event Time Altitude Azimuth Distance (km) Brightness Sun altitude
Rises 05:07:19 0° 296° (WNW) 5,343 - -75.2°
Reaches altitude 10° 05:11:42 10° 292° (WNW) 3,865 - -74.2°
Maximum altitude 05:20:24 46° 222° (SW) 1,364 - -72.3°
Drops below altitude 10° 05:25:32 10° 148° (SSE) 2,294 - -71.1°
Sets 05:27:33 0° 141° (SE) 3,021 - -70.6°
